Location: Ellingshausen
(50.5460°N, 10.4723°E)
Time: 00:37:44
(UTC+00:00)

Cosmos 2344 - Pass Details

Date: 18 January 2026
Orbit: 1195 x 3047 km, 63.3° (Epoch: 18 February)

Event Time Altitude Azimuth Distance (km) Brightness Sun altitude
Exits shadow 05:39:57 12° 317° (NW) 3,027 5.1 -13.9°
Maximum altitude 05:46:35 46° 28° (NNE) 1,784 4.4 -12.9°
Drops below altitude 10° 05:55:32 10° 101° (E) 3,974 7.7 -11.6°
Sets 05:59:20 0° 107° (ESE) 5,224 9.1 -11.0°
